Location: Newark
(29.9790°N, 31.1340°E)
Time: 12:06:14
(UTC+00:00)

Transit 2A Rocket - Pass Details

Date: 19 January 2020
Orbit: 591 x 912 km, 66.7° (Epoch: 24 February)

Event Time Altitude Azimuth Distance (km) Brightness Sun altitude
Rises 13:43:20 0° 339° (NNW) 3,059 8.0 17.4°
Reaches altitude 10° 13:45:36 10° 343° (NNW) 2,187 7.2 17.0°
Maximum altitude 13:50:33 62° 64° (ENE) 852 5.2 16.2°
Drops below altitude 10° 13:55:59 10° 145° (SE) 2,391 7.6 15.2°
Sets 13:58:33 0° 149° (SSE) 3,368 8.4 14.8°
